Weather History for KIBM - September, 2012

Change the Weather History Date:

Sunday, September 2, 2012

  Actual Average (KSNY) Record (KSNY)
Temperature  
Mean Temperature 76 °F 70 °F  
Max Temperature 88 °F 85 °F 99 °F (1983)
Min Temperature 65 °F 54 °F 32 °F (2006)
Degree Days  
Heating Degree Days 0 1  
Month to date heating degree days 2  
Since 1 July heating degree days 13  
Cooling Degree Days 12 6  
Month to date cooling degree days 12  
Year to date cooling degree days 754  
Growing Degree Days 26 (Base 50)    
Moisture  
Dew Point 42 °F    
Average Humidity 35    
Maximum Humidity 64    
Minimum Humidity 12    
Precipitation  
Precipitation 0.00 in 0.06 in 0.83 in (1966)
Month to date precipitation 0.12  
Year to date precipitation 15.28  
Sea Level Pressure  
Sea Level Pressure 30.10 in    
Wind  
Wind Speed 10 mph (NW)    
Max Wind Speed 30 mph    
Max Gust Speed 37 mph    
Visibility 10 miles    
Events Rain    
T = Trace of Precipitation, MM = Missing Value Source: NWS Daily Summary

Daily Weather History Graph

Daily Weather History Graph

Search for Another Location

Airport or City:

Trip Planner

Search our weather history database for the weather conditions in past years. The results will help you decide how hot, cold, wet, or windy it might be!

Date:

Astronomy

Sep. 02, 2012 Rise Set
Actual Time 7:22 AM CDT 8:24 PM CDT
Civil Twilight 6:54 AM CDT 8:53 PM CDT
Nautical Twilight 6:20 AM CDT 9:26 PM CDT
Astronomical Twilight 5:45 AM CDT 10:01 PM CDT
Moon 9:11 PM CDT (9/2) 9:35 AM CDT (9/2)
Length of Visible Light 13h 58m
Length of Day
13h 02m
Waning Gibbous, 95% of the Moon is Illuminated
Sep 2
Waning Gibbous
Sep 8
Last Quarter
Sep 15
New
Sep 22
First Quarter
Sep 29
Full

Hourly Weather History & Observations

Time (CDT) Temp. Dew Point Humidity Pressure Visibility Wind Dir Wind Speed Gust Speed Precip Events Conditions
12:15 AM 65.8 °F 46.9 °F 50% 30.08 in 10.0 mi Calm Calm - N/A   Clear
12:35 AM 67.8 °F 48.4 °F 50% 30.08 in 10.0 mi NW 9.2 mph - N/A   Scattered Clouds
12:55 AM 70.0 °F 46.2 °F 43% 30.08 in 10.0 mi NNW 11.5 mph - N/A   Scattered Clouds
1:15 AM 70.0 °F 45.3 °F 41% 30.07 in 10.0 mi NNW 8.1 mph - N/A   Clear
1:35 AM 69.3 °F 45.1 °F 42% 30.07 in 10.0 mi NNW 11.5 mph - N/A   Clear
1:55 AM 68.4 °F 45.5 °F 44% 30.07 in 10.0 mi NW 9.2 mph - N/A   Clear
2:15 AM 68.5 °F 45.5 °F 44% 30.07 in 10.0 mi NW 9.2 mph - N/A   Clear
2:35 AM 69.1 °F 46.2 °F 44% 30.07 in 10.0 mi NW 8.1 mph - N/A   Scattered Clouds
3:15 AM 68.2 °F 46.9 °F 47% 30.07 in 10.0 mi NW 10.4 mph - N/A   Scattered Clouds
3:35 AM 67.8 °F 46.0 °F 46% 30.08 in 10.0 mi WNW 15.0 mph - N/A   Clear
3:55 AM 68.0 °F 44.4 °F 43% 30.08 in 10.0 mi WNW 13.8 mph - N/A   Clear
4:15 AM 68.2 °F 44.1 °F 42% 30.08 in 10.0 mi WNW 15.0 mph - N/A   Scattered Clouds
4:35 AM 68.2 °F 44.1 °F 42% 30.08 in 10.0 mi WNW 13.8 mph - N/A   Scattered Clouds
4:55 AM 68.0 °F 43.9 °F 42% 30.08 in 10.0 mi WNW 10.4 mph - N/A   Scattered Clouds
5:15 AM 67.3 °F 44.2 °F 43% 30.08 in 10.0 mi NW 9.2 mph - N/A   Scattered Clouds
5:35 AM 67.3 °F 44.4 °F 44% 30.08 in 10.0 mi NW 9.2 mph - N/A   Clear
5:55 AM 66.9 °F 44.6 °F 45% 30.08 in 10.0 mi NNW 12.7 mph - N/A   Clear
6:15 AM 67.1 °F 45.0 °F 45% 30.08 in 10.0 mi NW 10.4 mph 16.1 mph N/A   Clear
6:35 AM 67.1 °F 46.0 °F 47% 30.08 in 10.0 mi WNW 12.7 mph - N/A   Clear
6:55 AM 67.1 °F 46.8 °F 48% 30.10 in 10.0 mi WNW 15.0 mph 18.4 mph N/A   Clear
7:15 AM 67.1 °F 46.4 °F 47% 30.09 in 10.0 mi WNW 17.3 mph - N/A   Clear
7:35 AM 67.1 °F 46.4 °F 47% 30.10 in 10.0 mi WNW 17.3 mph - N/A   Clear
7:55 AM 67.1 °F 46.6 °F 48% 30.10 in 10.0 mi WNW 13.8 mph - N/A   Clear
8:15 AM 66.6 °F 46.8 °F 49% 30.11 in 10.0 mi NW 10.4 mph - N/A   Clear
8:35 AM 66.6 °F 46.9 °F 49% 30.11 in 10.0 mi NNW 11.5 mph - N/A   Clear
8:55 AM 67.1 °F 46.8 °F 48% 30.11 in 10.0 mi NW 9.2 mph - N/A   Clear
9:15 AM 70.5 °F 46.9 °F 43% 30.11 in 10.0 mi NW 11.5 mph - N/A   Clear
9:35 AM 71.1 °F 45.9 °F 40% 30.12 in 10.0 mi NW 15.0 mph 21.9 mph N/A   Clear
9:55 AM 70.9 °F 45.5 °F 40% 30.12 in 10.0 mi NW 13.8 mph 19.6 mph N/A   Clear
10:15 AM 72.1 °F 45.0 °F 38% 30.14 in 10.0 mi NW 12.7 mph 19.6 mph N/A   Clear
10:35 AM 74.7 °F 44.6 °F 34% 30.14 in 10.0 mi NNW 15.0 mph 20.7 mph N/A   Clear
10:55 AM 77.2 °F 43.9 °F 31% 30.14 in 10.0 mi NW 15.0 mph 21.9 mph N/A   Clear
11:15 AM 79.0 °F 43.0 °F 28% 30.14 in 10.0 mi NW 18.4 mph 23.0 mph N/A   Clear
11:35 AM 80.8 °F 42.1 °F 25% 30.14 in 10.0 mi NNW 18.4 mph 26.5 mph N/A   Clear
11:55 AM 81.9 °F 41.9 °F 24% 30.14 in 10.0 mi NW 15.0 mph 28.8 mph N/A   Clear
12:15 PM 80.6 °F 42.1 °F 25% 30.14 in 10.0 mi NNW 15.0 mph 25.3 mph N/A   Clear
12:35 PM 82.4 °F 40.8 °F 23% 30.14 in 10.0 mi NW 12.7 mph 24.2 mph N/A   Mostly Cloudy
12:55 PM 82.4 °F 38.7 °F 21% 30.13 in 10.0 mi NNW 9.2 mph 20.7 mph N/A   Mostly Cloudy
1:15 PM 84.7 °F 30.4 °F 14% 30.12 in 10.0 mi NW 17.3 mph 21.9 mph N/A   Scattered Clouds
1:35 PM 85.1 °F 33.8 °F 16% 30.11 in 10.0 mi NW 15.0 mph 24.2 mph N/A   Clear
1:55 PM 85.3 °F 32.4 °F 15% 30.11 in 10.0 mi NNW 18.4 mph 24.2 mph N/A   Clear
2:15 PM 86.4 °F 32.2 °F 14% 30.11 in 10.0 mi NNW 18.4 mph 24.2 mph N/A   Clear
2:35 PM 86.9 °F 30.0 °F 13% 30.11 in 10.0 mi NW 15.0 mph 20.7 mph N/A   Clear
2:55 PM 87.4 °F 30.4 °F 13% 30.10 in 10.0 mi NNW 13.8 mph 19.6 mph N/A   Clear
3:15 PM 88.2 °F 30.6 °F 13% 30.10 in 10.0 mi NNW 11.5 mph 21.9 mph N/A   Clear
3:35 PM 88.2 °F 31.1 °F 13% 30.09 in 10.0 mi NNW 12.7 mph 17.3 mph N/A   Clear
3:55 PM 87.8 °F 30.7 °F 13% 30.08 in 10.0 mi North 13.8 mph 18.4 mph N/A   Clear
4:15 PM 87.8 °F 30.4 °F 13% 30.08 in 10.0 mi West 5.8 mph 16.1 mph N/A   Clear
4:35 PM 88.9 °F 29.5 °F 12% 30.07 in 10.0 mi North 11.5 mph 16.1 mph N/A   Clear
4:55 PM 86.2 °F 29.3 °F 13% 30.07 in 10.0 mi NW 5.8 mph - N/A   Clear
5:15 PM 84.9 °F 29.3 °F 13% 30.08 in 10.0 mi NNW 15.0 mph - N/A   Scattered Clouds
5:35 PM 83.3 °F 35.2 °F 18% 30.09 in 10.0 mi WNW 29.9 mph 36.8 mph N/A Rain Light Rain
5:55 PM 82.4 °F 37.6 °F 20% 30.09 in 10.0 mi NW 13.8 mph 24.2 mph N/A   Scattered Clouds
6:15 PM 81.3 °F 37.0 °F 20% 30.08 in 10.0 mi NNW 10.4 mph - N/A   Clear
6:35 PM 80.1 °F 37.2 °F 21% 30.08 in 10.0 mi NNW 4.6 mph - N/A   Clear
6:55 PM 79.9 °F 37.6 °F 22% 30.08 in 10.0 mi NNW 3.5 mph - N/A   Clear
7:15 PM 79.2 °F 38.3 °F 23% 30.08 in 10.0 mi NNW 3.5 mph - N/A   Scattered Clouds
7:35 PM 78.1 °F 40.1 °F 26% 30.11 in 10.0 mi West 26.5 mph 31.1 mph N/A Rain Light Rain
7:55 PM 75.6 °F 40.1 °F 28% 30.09 in 10.0 mi Calm Calm - N/A   Mostly Cloudy
8:15 PM 72.9 °F 45.1 °F 37% 30.10 in 10.0 mi Calm Calm - N/A   Scattered Clouds
8:35 PM 73.2 °F 43.5 °F 34% 30.12 in 10.0 mi West 4.6 mph - N/A Rain Light Rain
8:55 PM 69.4 °F 50.7 °F 51% 30.16 in 10.0 mi WSW 20.7 mph 26.5 mph N/A Rain Rain
9:15 PM 65.7 °F 53.2 °F 64% 30.14 in 10.0 mi WSW 9.2 mph - N/A Rain Light Rain
9:35 PM 67.1 °F 53.6 °F 62% 30.14 in 10.0 mi South 5.8 mph - N/A   Mostly Cloudy
9:55 PM 67.5 °F 53.6 °F 61% 30.14 in 10.0 mi SW 9.2 mph - N/A   Scattered Clouds
10:15 PM 68.4 °F 52.0 °F 56% 30.14 in 10.0 mi SSW 10.4 mph - N/A   Mostly Cloudy
10:35 PM 68.0 °F 52.3 °F 57% 30.13 in 10.0 mi South 9.2 mph - N/A   Mostly Cloudy
10:55 PM 68.5 °F 50.7 °F 53% 30.14 in 10.0 mi SSW 6.9 mph - N/A   Overcast
11:15 PM 68.9 °F 48.4 °F 48% 30.12 in 10.0 mi ESE 6.9 mph - N/A   Mostly Cloudy
11:35 PM 71.2 °F 46.6 °F 41% 30.12 in 10.0 mi Calm Calm - N/A   Scattered Clouds
11:55 PM 71.1 °F 48.9 °F 45% 30.12 in 10.0 mi SW 11.5 mph - N/A   Mostly Cloudy